This is the latest recevied weather packets stored in our database for station/object KD8UYA. If no packets are shown the sender has not sent any weather packets the latest 10 day(s).
| Time | Temp. | Humidity | Pressure | Rain* | Wind** | Luminosity | Snow |
|---|---|---|---|---|---|---|---|
| 1778032841 | 8.89° C | 97% | 1005.6 hPa | 3.81 mm | - | - | - |
| 1778031940 | 8.89° C | 97% | 1005.6 hPa | 3.81 mm | - | - | - |
| 1778031039 | 8.89° C | 97% | 1005.7 hPa | 4.32 mm | - | - | - |
| 1778030140 | 9.44° C | 97% | 1005.6 hPa | 3.56 mm | - | - | - |
| 1778029238 | 9.44° C | 97% | 1005.4 hPa | 2.54 mm | - | - | - |
| 1778028336 | 8.89° C | 97% | 1005.2 hPa | 1.78 mm | - | - | - |
| 1778027438 | 8.89° C | 97% | 1005.1 hPa | 0.76 mm | - | - | - |
| 1778026536 | 9.44° C | 97% | 1005 hPa | 1.02 mm | - | - | - |
| 1778025633 | 9.44° C | 96% | 1005 hPa | 2.03 mm | - | - | - |
| 1778024730 | 9.44° C | 96% | 1004.9 hPa | 5.33 mm | - | - | - |
| 1778023828 | 10° C | 96% | 1004.9 hPa | 5.84 mm | - | - | - |
| 1778022941 | 10.56° C | 96% | 1005.2 hPa | 5.59 mm | - | - | - |
| 1778022026 | 10.56° C | 96% | 1005.2 hPa | 5.08 mm | - | - | - |
| 1778021120 | 11.11° C | 96% | 1005.3 hPa | 1.52 mm | - | - | - |
| 1778020218 | 12.22° C | 94% | 1004.6 hPa | 0.76 mm | - | - | - |
| 1778019314 | 13.33° C | 96% | 1004.6 hPa | 0.76 mm | - | - | - |
| 1778018412 | 13.33° C | 96% | 1004.7 hPa | 0.51 mm | - | - | - |
| 1778017512 | 13.33° C | 96% | 1004.6 hPa | 2.29 mm | - | - | - |
| 1778016617 | 13.33° C | 96% | 1004.6 hPa | 2.79 mm | - | - | - |
| 1778015713 | 13.89° C | 95% | 1004.6 hPa | 2.79 mm | - | - | - |
| 1778014813 | 13.89° C | 94% | 1004.7 hPa | 2.54 mm | - | - | - |
| 1778013906 | 13.89° C | 93% | 1004.7 hPa | 0.76 mm | - | - | - |
| 1778013085 | 14.44° C | 93% | 1004.4 hPa | 0.76 mm | - | - | - |
| 1778012101 | 14.44° C | 91% | 1004.7 hPa | 0.25 mm | - | - | - |
| 1778011259 | 15° C | 89% | 1004.5 hPa | 0.25 mm | - | - | - |
* Rain latest hour (hover to see other rain measurements)
** Current wind speed in m/s (hover to see current wind gust speed)